When you browse on this site, cookies collect data to enhance your experience and personalize the content and advertising you see.
Visit our Privacy Policy to learn more. By continuing to use the site, you agree to this use of cookies and data.
  • în România
  • Lista ţărilor
  • Pe 7 zile
  • Temperatura apei
  • Hartă satelitară
  • Meteo pe hartă
  • Widget-uri
  • user-avatar
    Intrare

    Meteo pe oră la Lopuhinovka

    Astăzi, 18 Noiembrie, Duminică

    Timp Temperatura Precipitaţii Vânt Presiune Umiditate
    00:00 -2°C° 0 mm 5 m/s 752 mmHg 46%
    01:00 -2°C° 0 mm 5 m/s 751 mmHg 48%
    02:00 -2°C° 0 mm 5 m/s 751 mmHg 50%
    03:00 -2°C° 0 mm 5 m/s 749 mmHg 51%
    04:00 -2°C° 0 mm 4 m/s 749 mmHg 55%
    05:00 -3°C° 0 mm 4 m/s 748 mmHg 58%
    06:00 -3°C° 0 mm 4 m/s 748 mmHg 62%
    07:00 -3°C° 0 mm 4 m/s 748 mmHg 66%
    08:00 -3°C° 0 mm 4 m/s 748 mmHg 69%
    09:00 -3°C° 0 mm 4 m/s 747 mmHg 66%
    10:00 -3°C° 0 mm 4 m/s 747 mmHg 69%
    11:00 -1°C° 0 mm 3 m/s 747 mmHg 72%
    12:00 -1°C° 0 mm 3 m/s 747 mmHg 75%
    13:00 -1°C° 0 mm 3 m/s 747 mmHg 76%
    14:00 -1°C° 0 mm 2 m/s 747 mmHg 78%
    15:00 -1°C° 0 mm 2 m/s 748 mmHg 79%
    16:00 -1°C° 0 mm 2 m/s 748 mmHg 81%
    17:00 -1°C° 0 mm 2 m/s 748 mmHg 83%
    18:00 -2°C° 0 mm 2 m/s 748 mmHg 85%
    19:00 -2°C° 0 mm 2 m/s 749 mmHg 86%
    20:00 +1°C° 0 mm 1 m/s 749 mmHg 87%
    21:00 +1°C° 0 mm 1 m/s 749 mmHg 88%
    22:00 +1°C° 0 mm 1 m/s 749 mmHg 89%
    23:00 +1°C° 0 mm 1 m/s 750 mmHg 90%

    Mâine, 19 Noiembrie, Luni

    Timp Temperatura Precipitaţii Vânt Presiune Umiditate
    00:00 +1°C° 0 mm 1 m/s 750 mmHg 91%
    01:00 +1°C° 0 mm 1 m/s 750 mmHg 91%
    02:00 +1°C° 0 mm 1 m/s 751 mmHg 92%
    03:00 +1°C° 0 mm 1 m/s 751 mmHg 93%
    04:00 +1°C° 0 mm 1 m/s 751 mmHg 93%
    05:00 +1°C° 0 mm 1 m/s 751 mmHg 93%
    06:00 +1°C° 0 mm 1 m/s 751 mmHg 94%
    07:00 +1°C° 0 mm 1 m/s 752 mmHg 94%
    08:00 +1°C° 0 mm 1 m/s 752 mmHg 94%
    09:00 +1°C° 0 mm 1 m/s 752 mmHg 94%
    10:00 +1°C° 0 mm 1 m/s 753 mmHg 91%
    11:00 +2°C° 0 mm 1 m/s 753 mmHg 89%
    12:00 +2°C° 0 mm 1 m/s 753 mmHg 86%
    13:00 +2°C° 0 mm 1 m/s 754 mmHg 88%
    14:00 +2°C° 0 mm 1 m/s 754 mmHg 89%
    15:00 +2°C° 0 mm 1 m/s 754 mmHg 90%
    16:00 +1°C° 0 mm 2 m/s 754 mmHg 92%
    17:00 -1°C° 0 mm 2 m/s 754 mmHg 93%
    18:00 -1°C° 0 mm 2 m/s 754 mmHg 95%
    19:00 -1°C° 0 mm 2 m/s 754 mmHg 96%
    20:00 -1°C° 0 mm 2 m/s 754 mmHg 96%
    21:00 -1°C° 0 mm 2 m/s 754 mmHg 96%
    22:00 -1°C° 0 mm 2 m/s 754 mmHg 96%
    23:00 -1°C° 0 mm 2 m/s 755 mmHg 96%

    Poimâine, 20 Noiembrie, Marţi

    Timp Temperatura Precipitaţii Vânt Presiune Umiditate
    00:00 -1°C° 0 mm 2 m/s 755 mmHg 96%
    01:00 -1°C° 0 mm 2 m/s 755 mmHg 96%
    02:00 -1°C° 0 mm 2 m/s 754 mmHg 96%
    03:00 -1°C° 0 mm 2 m/s 754 mmHg 96%
    04:00 -2°C° 0 mm 2 m/s 754 mmHg 96%
    05:00 -2°C° 0 mm 3 m/s 754 mmHg 95%
    06:00 -2°C° 0 mm 3 m/s 754 mmHg 95%
    07:00 -2°C° 0 mm 3 m/s 754 mmHg 94%
    08:00 -2°C° 0 mm 3 m/s 754 mmHg 93%
    09:00 -2°C° 0 mm 2 m/s 754 mmHg 92%
    10:00 -1°C° 0 mm 2 m/s 754 mmHg 89%
    11:00 -1°C° 0 mm 2 m/s 753 mmHg 87%
    12:00 -1°C° 0 mm 2 m/s 753 mmHg 84%
    13:00 -1°C° 0 mm 2 m/s 753 mmHg 83%
    14:00 -1°C° 0 mm 2 m/s 753 mmHg 81%
    15:00 -1°C° 0 mm 2 m/s 752 mmHg 79%
    16:00 -1°C° 0 mm 2 m/s 752 mmHg 80%
    17:00 -2°C° 0 mm 2 m/s 752 mmHg 80%
    18:00 -2°C° 0 mm 2 m/s 752 mmHg 81%
    19:00 -2°C° 0 mm 2 m/s 752 mmHg 81%
    20:00 -2°C° 0 mm 2 m/s 752 mmHg 80%
    21:00 -2°C° 0 mm 2 m/s 752 mmHg 80%
    22:00 -2°C° 0 mm 2 m/s 752 mmHg 80%
    23:00 -3°C° 0 mm 2 m/s 752 mmHg 80%

    21 Noiembrie, Miercuri

    Timp Temperatura Precipitaţii Vânt Presiune Umiditate
    00:00 -3°C° 0 mm 2 m/s 752 mmHg 80%
    01:00 -3°C° 0 mm 2 m/s 751 mmHg 81%
    02:00 -3°C° 0 mm 2 m/s 751 mmHg 82%
    03:00 -3°C° 0 mm 2 m/s 751 mmHg 83%
    04:00 -4°C° 0 mm 2 m/s 751 mmHg 83%
    05:00 -4°C° 0 mm 2 m/s 751 mmHg 84%
    06:00 -5°C° 0 mm 3 m/s 751 mmHg 85%
    07:00 -5°C° 0 mm 3 m/s 751 mmHg 85%
    08:00 -5°C° 0 mm 3 m/s 751 mmHg 84%
    09:00 -5°C° 0 mm 3 m/s 751 mmHg 84%
    10:00 -4°C° 0 mm 3 m/s 751 mmHg 81%
    11:00 -4°C° 0 mm 3 m/s 751 mmHg 79%
    12:00 -2°C° 0 mm 3 m/s 751 mmHg 76%
    13:00 -2°C° 0 mm 3 m/s 751 mmHg 77%
    14:00 -2°C° 0 mm 3 m/s 751 mmHg 78%
    15:00 -3°C° 0 mm 4 m/s 751 mmHg 80%
    16:00 -3°C° 0 mm 4 m/s 751 mmHg 82%
    17:00 -2°C° 0 mm 3 m/s 751 mmHg 84%
    18:00 -4°C° 0 mm 3 m/s 751 mmHg 86%
    19:00 -4°C° 0 mm 3 m/s 751 mmHg 86%
    20:00 -2°C° 0 mm 3 m/s 751 mmHg 87%
    21:00 -2°C° 0 mm 3 m/s 751 mmHg 87%
    22:00 -4°C° 0 mm 3 m/s 751 mmHg 87%
    23:00 -4°C° 0 mm 3 m/s 751 mmHg 86%

    22 Noiembrie, Joi

    Timp Temperatura Precipitaţii Vânt Presiune Umiditate
    00:00 -3°C° 0 mm 2 m/s 751 mmHg 85%
    01:00 -4°C° 0 mm 3 m/s 750 mmHg 84%
    02:00 -4°C° 0 mm 3 m/s 750 mmHg 83%
    03:00 -4°C° 0 mm 3 m/s 750 mmHg 82%
    04:00 -5°C° 0 mm 3 m/s 750 mmHg 82%
    05:00 -5°C° 0 mm 3 m/s 750 mmHg 82%
    06:00 -5°C° 0 mm 4 m/s 749 mmHg 83%
    07:00 -5°C° 0 mm 4 m/s 749 mmHg 82%
    08:00 -6°C° 0 mm 5 m/s 749 mmHg 81%
    09:00 -6°C° 0 mm 5 m/s 748 mmHg 81%
    10:00 -5°C° 0 mm 5 m/s 748 mmHg 79%
    11:00 -5°C° 0 mm 6 m/s 748 mmHg 76%
    12:00 -4°C° 0 mm 6 m/s 748 mmHg 74%
    13:00 -4°C° 0 mm 6 m/s 748 mmHg 74%
    14:00 -4°C° 0 mm 6 m/s 748 mmHg 74%
    15:00 -4°C° 0 mm 6 m/s 748 mmHg 74%
    16:00 -4°C° 0 mm 6 m/s 748 mmHg 75%
    17:00 -4°C° 0 mm 5 m/s 748 mmHg 76%
    18:00 -5°C° 0 mm 5 m/s 748 mmHg 78%
    19:00 -5°C° 0 mm 5 m/s 748 mmHg 79%
    20:00 -5°C° 0 mm 5 m/s 749 mmHg 81%
    21:00 -5°C° 0 mm 5 m/s 749 mmHg 83%
    22:00 -4°C° 0 mm 4 m/s 749 mmHg 85%
    23:00 -4°C° 0 mm 4 m/s 750 mmHg 87%

    23 Noiembrie, Vineri

    Timp Temperatura Precipitaţii Vânt Presiune Umiditate
    00:00 -4°C° 0 mm 4 m/s 750 mmHg 89%
    01:00 -4°C° 0 mm 4 m/s 750 mmHg 90%
    02:00 -4°C° 0 mm 4 m/s 751 mmHg 92%
    03:00 -4°C° 0 mm 3 m/s 751 mmHg 94%
    04:00 -5°C° 0 mm 3 m/s 751 mmHg 94%
    05:00 -5°C° 0 mm 3 m/s 751 mmHg 94%
    06:00 -5°C° 0 mm 3 m/s 752 mmHg 94%
    07:00 -5°C° 0 mm 3 m/s 752 mmHg 93%
    08:00 -4°C° 0 mm 3 m/s 753 mmHg 92%
    09:00 -4°C° 0 mm 3 m/s 753 mmHg 91%
    10:00 -4°C° 0 mm 3 m/s 753 mmHg 87%
    11:00 -2°C° 0 mm 3 m/s 753 mmHg 83%
    12:00 -2°C° 0 mm 3 m/s 753 mmHg 79%
    13:00 -2°C° 0 mm 3 m/s 753 mmHg 79%
    14:00 -3°C° 0 mm 4 m/s 753 mmHg 79%
    15:00 -3°C° 0 mm 4 m/s 753 mmHg 78%
    16:00 -3°C° 0 mm 4 m/s 753 mmHg 79%
    17:00 -3°C° 0 mm 4 m/s 753 mmHg 80%
    18:00 -3°C° 0 mm 4 m/s 752 mmHg 81%
    19:00 -3°C° 0 mm 4 m/s 752 mmHg 83%
    20:00 -3°C° 0 mm 4 m/s 751 mmHg 86%
    21:00 -5°C° 0 mm 5 m/s 751 mmHg 88%
    22:00 -5°C° 0 mm 5 m/s 751 mmHg 87%
    23:00 -5°C° 0 mm 6 m/s 750 mmHg 87%
    Arată mai mult